World > North America > United States > North Carolina   Town of Wallace, North Carolina

Hourly Wallace, NC Regional Weather

Feedback E-mail the Weather

Quick WX

Wallace, NC Weather Maps

°F °C°F °C
Wallace Weather Map
UTC Time: 7/6/2022, 01:57
Your Time:

Wallace, NC Regional Weather

Expires:202207060200;;757134
ASUS42 KMHX 060126
RWRMHX
WEATHER ROUNDUP FOR EASTERN NORTH CAROLINA
NATIONAL WEATHER SERVICE NEWPORT/MOREHEAD CITY NC
900 PM EDT TUE JUL 05 2022

NOTE: "FAIR" INDICATES FEW OR NO CLOUDS BELOW 12,000 FEET
WITH NO SIGNIFICANT WEATHER AND/OR OBSTRUCTIONS TO VISIBILITY


NCZ011>013-027>030-043-044-078>080-089-090>093-098-060200-
COASTAL PLAIN
  
CITY           SKY/WX    TMP DP  RH WIND       PRES   REMARKS
AHOSKIE        CLOUDY    82  75  78 S8        29.94S                  
ROCKY MOUNT    CLOUDY    80  68  66 SW6       29.95F                  
GREENVILLE     MOCLDY    84  77  79 S10       29.94F                  
WASHINGTON     CLOUDY    82  74  78 S6        29.98S                  
GOLDSBORO      MOCLDY    86  72  62 SE8       29.95F                  
KINSTON        CLEAR     84  77  79 S8        29.99S                  
NEW BERN       MOCLDY    80  75  84 S6        30.01R                  
HAVELOCK       PTCLDY    80  75  84 SW8       30.01                   
KENANSVILLE    MOCLDY    82  77  83 MISG      30.00S                  
RICHLANDS      PTCLDY    81  77  88 S8        30.01S                  
CLINTON        PTCLDY    83  78  87 S3        30.00F                  
ELIZABETHTOWN  PTCLDY    82  76  80 S8        30.01F                  
WHITEVILLE     PTCLDY    82  74  75 S7        30.03S                  

$$


SKY/WX - Weather  TMP - Temperature  DP - Dew Point  RH - Humidity
WIND - Wind Direction/Speed PRES - Barometric Pressure VSB - Visibility
WCI - Wind Chill Index E13G22 Wind - East Wind 13 mph/Gusts of 22 mph

Trending Headlines

Wallace Radar Loop



Wallace Quick Facts


National Two Day Weather Forecast


E-mail the Wallace Weather Forecast

Voice your opinion or tell us about page issues...